Regional Weather Roundup
Issued by NWS Jackson, KY

Home | Current Version | Previous Version | Graphics & Text | Print | Product List | Glossary On
Versions: 1 2 3 4 5 6 7 8 9 10 11 12 13 14 15 16 17 18 19 20 21 22 23 24 25 26 27 28 29 30 31 32 33 34 35 36 37 38 39 40 41 42 43 44 45 46 47 48 49 50
000
ASUS43 KJKL 271010
RWRJKL

EAST KENTUCKY HOURLY WEATHER ROUNDUP
NATIONAL WEATHER SERVICE JACKSON KY
600 AM EDT THU AUG 27 2015

NOTE: "FAIR" INDICATES FEW OR NO CLOUDS BELOW 12,000 FEET WITH
NO SIGNIFICANT WEATHER AND/OR OBSTRUCTIONS TO VISIBILITY.

* THESE REPORTS ARE NOT UNDER NWS QUALITY CONTROL AND MAY NOT
  REPORT WEATHER SUCH AS PRECIPITATION AND FOG.

KYZ079-080-083-085-087-088-110-112-115-119-120-271100
...EASTERN KENTUCKY...

CITY           SKY/WX    TMP DP  RH WIND       PRES   REMARKS
JACKSON        CLEAR     57  53  86 CALM      30.15R
LONDON         CLEAR     56  52  86 N5        30.13S
SOMERSET*      CLEAR     54  54 100 CALM      30.14S
MONTICELLO*    FOG       50  50 100 CALM      30.16R VSB 1/4
WILLIAMSBURG*  CLEAR     52  52 100 CALM      30.13S
MIDDLESBORO*   CLOUDY    54  54 100 CALM      30.14S FOG
HAZARD APT*      N/A     54  54 100 CALM      30.15R
BLACK MTN*       N/A     52  52 100 CALM        N/A
PIKEVILLE APT* PTCLDY    55  55 100 CALM      30.14S
BIG SANDY*     MOSUNNY   55  55 100 CALM      30.16R
MOREHEAD APT*  MOSUNNY   55  54  94 CALM      30.17S
$$

KYZ035-036-041-042-044-050-067-078-099-271100
...CENTRAL KENTUCKY...

CITY           SKY/WX    TMP DP  RH WIND       PRES   REMARKS
MT STERLING*   CLEAR     52  52 100 CALM      30.17R
FLEMING/MASON* CLEAR     54  54 100 CALM      30.17R
DANVILLE*      CLEAR     52  52 100 CALM      30.16R FOG
RICHMOND*      CLEAR     54  52  94 CALM      30.14R
LEXINGTON      CLEAR     55  53  93 CALM      30.15R
FRANKFORT      CLEAR     56  53  90 N3        30.14R
$$

KYZ091>093-OHZ055-061-077-WVZ005-015-034-035-042-271100
...SOUTHERN OHIO/WEST VIRGINIA...

CITY           SKY/WX    TMP DP  RH WIND       PRES   REMARKS
COVINGTON      MOCLDY    62  56  80 CALM      30.15S
COLUMBUS       CLOUDY    62  55  77 CALM      30.15R
DAYTON         CLOUDY    60  58  92 N3        30.17R
WILMINGTON     CLOUDY    59  56  89 CALM      30.16R
HUNTINGTON     CLEAR     54  54 100 CALM      30.15R FOG
CHARLESTON     PTCLDY    56  55  97 CALM      30.14R
PINEVILLE*     FOG       54  54 100 MISG      30.21R VSB<1/4
BECKLEY        CLEAR     50  48  93 CALM      30.17S
BLUEFIELD      CLEAR     53  48  83 CALM      30.18R
$$

VAZ002-007-008-TNZ017-027-036-066-071-271100
...SOUTHWEST VIRGINIA/EAST TENNESSEE...

CITY           SKY/WX    TMP DP  RH WIND       PRES   REMARKS
WISE*          MOCLDY    55  55 100 NE3       30.18R
JONESVILLE*    MOSUNNY   54  54 100 CALM      30.15S
ABINGDON*      MOCLDY    59  51  75 E5        30.14S
BRISTOL        CLOUDY    60  53  77 CALM      30.12R
KNOXVILLE      MOCLDY    62  56  80 NE8       30.07S
OAK RIDGE      PTCLDY    61  56  83 CALM      30.10S
CROSSVILLE     CLEAR     56  53  90 NE3       30.12S
NASHVILLE      CLEAR     60  55  83 CALM      30.10R
$$

...KEY TO REMARKS...
VSB - VISIBILITY IN MILES
WCI - WIND CHILL INDEX
HX  - HEAT INDEX

$$


USA.gov is the U.S. government's official web portal to all federal, state and local government web resources and services.